Precipitable_Water
1.58 1.64 1.71 1.83 1.90 1.74 1.71 1.63 1.53 1.34 1.27 1.17 1.08 1.01 1.08 1.20 1.23 1.34 1.35 1.39 1.52 1.42 1.35 1.27 1.18 1.12 0.98 0.97 1.17 1.14 1.14 1.26 1.19 1.07 1.05 1.10 1.02 1.00 1.13 1.27 1.35 1.38 1.33
1.55 1.69 1.67 1.75 1.85 1.88 1.76 1.68 1.57 1.40 1.25 1.12 1.05 1.05 1.22 1.44 1.40 1.35 1.83 1.72 1.51 1.39 1.31 1.20 1.05 0.94 0.96 1.04 1.08 1.07 1.01 1.06 1.06 0.97 1.03 0.99 0.95 1.01 1.11 1.23 1.31 1.27 1.19
1.57 1.70 1.77 1.71 1.77 1.84 1.78 1.69 1.61 1.50 1.24 1.11 1.09 1.12 1.35 1.51 1.53 1.52 1.87 1.78 1.54 1.42 1.29 1.04 0.93 0.91 0.93 0.95 1.03 1.02 1.01 0.97 0.96 1.02 1.13 1.04 1.05 1.04 1.06 1.13 1.24 1.23 1.21
1.53 1.66 1.78 1.83 1.77 1.77 1.78 1.71 1.65 1.55 1.37 1.13 1.22 1.31 1.40 1.52 1.47 1.57 1.82 1.84 1.52 1.42 1.12 1.03 0.92 0.89 0.92 0.96 1.02 1.06 1.00 0.94 1.02 1.12 1.19 1.06 1.05 1.09 1.06 1.08 1.18 1.27 1.33
1.48 1.61 1.72 1.77 1.76 1.78 1.78 1.77 1.74 1.63 1.50 1.30 1.26 1.37 1.49 1.59 1.51 1.56 1.71 1.87 1.56 1.27 1.12 1.07 0.96 0.92 0.92 0.91 0.90 0.94 0.97 0.92 1.04 1.19 1.22 1.13 1.08 1.09 1.10 1.08 1.10 1.17 1.25
1.50 1.62 1.75 1.79 1.74 1.76 1.77 1.77 1.78 1.77 1.62 1.51 1.27 1.34 1.47 1.56 1.55 1.63 1.65 1.67 1.46 1.28 1.16 1.09 1.02 0.99 0.93 0.90 0.86 0.91 0.98 0.92 0.97 1.18 1.18 1.07 1.13 1.06 1.07 1.07 1.07 1.10 1.13
1.48 1.62 1.79 1.77 1.74 1.75 1.75 1.76 1.82 1.83 1.86 1.73 1.50 1.29 1.45 1.59 1.64 1.68 1.67 1.56 1.44 1.34 1.27 1.18 1.09 1.05 0.98 0.95 0.90 0.92 0.99 0.94 1.09 1.08 1.13 1.21 1.18 1.13 1.07 1.13 1.15 1.09 1.13
1.42 1.53 1.57 1.66 1.68 1.73 1.75 1.79 1.78 1.79 1.75 1.74 1.74 1.51 1.40 1.53 1.61 1.68 1.60 1.53 1.51 1.46 1.38 1.28 1.17 1.11 1.05 1.00 0.94 1.00 0.98 0.96 0.98 1.07 1.12 1.19 1.27 1.17 1.04 1.05 1.07 1.09 1.12
1.27 1.38 1.45 1.52 1.56 1.59 1.67 1.75 1.77 1.75 1.74 1.72 1.72 1.70 1.56 1.47 1.52 1.60 1.63 1.56 1.54 1.53 1.49 1.38 1.25 1.16 1.10 1.06 0.99 1.00 1.02 1.00 1.03 1.00 1.01 1.09 1.09 1.33 1.13 1.06 1.04 1.07 1.09
0.99 1.09 1.15 1.25 1.35 1.46 1.52 1.54 1.69 1.72 1.67 1.67 1.68 1.69 1.68 1.60 1.55 1.53 1.56 1.55 1.53 1.56 1.57 1.52 1.37 1.24 1.17 1.11 1.06 1.01 1.05 1.04 1.03 1.01 1.01 1.03 1.03 1.20 1.18 1.11 1.05 1.05 1.06
0.74 0.80 0.85 0.91 1.01 1.08 1.16 1.26 1.39 1.50 1.54 1.55 1.59 1.63 1.67 1.71 1.68 1.64 1.59 1.59 1.55 1.55 1.58 1.60 1.53 1.40 1.27 1.21 1.16 1.09 1.07 1.10 1.09 1.01 0.98 0.97 0.96 1.06 1.10 1.07 1.08 1.07 1.06
0.56 0.60 0.65 0.69 0.74 0.80 0.84 0.93 0.98 1.09 1.27 1.48 1.50 1.57 1.66 1.74 1.72 1.70 1.70 1.60 1.57 1.54 1.54 1.59 1.61 1.55 1.40 1.26 1.23 1.17 1.10 1.09 1.11 1.08 1.04 1.00 1.00 1.08 1.10 1.09 1.07 1.06 1.06
0.46 0.46 0.48 0.50 0.53 0.56 0.61 0.69 0.76 0.80 0.88 1.01 1.30 1.50 1.60 1.66 1.71 1.74 1.74 1.74 1.62 1.59 1.58 1.59 1.58 1.60 1.53 1.42 1.25 1.18 1.15 1.11 1.09 1.10 1.11 1.05 1.04 1.07 1.13 1.14 1.08 1.07 1.06
0.36 0.38 0.41 0.42 0.42 0.42 0.43 0.43 0.43 0.47 0.61 0.73 0.89 1.04 1.34 1.49 1.54 1.65 1.72 1.73 1.73 1.69 1.58 1.59 1.61 1.63 1.60 1.59 1.46 1.25 1.11 1.08 1.09 1.07 1.09 1.11 1.09 1.09 1.11 1.19 1.15 1.10 1.08
0.32 0.35 0.36 0.37 0.36 0.36 0.35 0.35 0.36 0.36 0.37 0.40 0.51 0.68 0.83 1.05 1.24 1.47 1.58 1.67 1.67 1.72 1.70 1.64 1.60 1.57 1.58 1.56 1.59 1.49 1.30 1.11 1.08 1.12 1.12 1.09 1.10 1.12 1.13 1.17 1.22 1.20 1.14
0.33 0.35 0.37 0.38 0.39 0.37 0.34 0.35 0.34 0.35 0.36 0.38 0.39 0.41 0.47 0.60 0.80 1.01 1.24 1.42 1.54 1.65 1.66 1.63 1.62 1.60 1.58 1.59 1.56 1.57 1.55 1.41 1.20 1.12 1.16 1.19 1.11 1.13 1.16 1.16 1.19 1.24 1.25
0.35 0.36 0.37 0.37 0.39 0.39 0.39 0.38 0.36 0.35 0.35 0.37 0.40 0.41 0.41 0.42 0.46 0.56 0.71 0.99 1.23 1.40 1.51 1.57 1.58 1.60 1.59 1.63 1.58 1.64 1.58 1.59 1.50 1.35 1.23 1.21 1.20 1.13 1.12 1.14 1.18 1.21 1.24
0.38 0.39 0.41 0.43 0.43 0.43 0.43 0.43 0.43 0.43 0.42 0.42 0.43 0.44 0.44 0.45 0.45 0.44 0.46 0.54 0.72 1.04 1.26 1.34 1.42 1.43 1.44 1.48 1.52 1.59 1.65 1.64 1.63 1.61 1.52 1.39 1.28 1.22 1.15 1.12 1.12 1.19 1.24
0.45 0.46 0.46 0.49 0.49 0.50 0.50 0.51 0.51 0.51 0.49 0.49 0.50 0.49 0.49 0.49 0.49 0.48 0.46 0.47 0.50 0.58 0.77 1.06 1.21 1.34 1.35 1.38 1.41 1.49 1.55 1.60 1.65 1.69 1.68 1.62 1.51 1.38 1.28 1.21 1.15 1.14 1.19
0.50 0.52 0.54 0.55 0.57 0.58 0.59 0.58 0.57 0.56 0.56 0.58 0.57 0.56 0.56 0.54 0.53 0.52 0.51 0.50 0.50 0.48 0.49 0.61 0.87 1.14 1.26 1.34 1.37 1.37 1.41 1.51 1.59 1.68 1.70 1.77 1.74 1.65 1.51 1.40 1.32 1.20 1.18
0.54 0.55 0.57 0.58 0.62 0.64 0.62 0.61 0.61 0.61 0.64 0.64 0.62 0.61 0.59 0.58 0.58 0.57 0.56 0.54 0.52 0.50 0.48 0.47 0.50 0.68 0.99 1.18 1.22 1.22 1.32 1.39 1.38 1.46 1.60 1.64 1.60 1.71 1.78 1.56 1.50 1.45 1.40
0.56 0.59 0.62 0.63 0.65 0.66 0.66 0.68 0.68 0.67 0.68 0.69 0.70 0.71 0.71 0.66 0.60 0.57 0.55 0.55 0.56 0.54 0.52 0.50 0.48 0.46 0.52 0.80 0.89 1.02 0.95 1.09 1.27 1.35 1.35 1.37 1.39 1.55 1.54 1.68 1.68 1.58 1.59
0.59 0.61 0.62 0.65 0.66 0.66 0.66 0.65 0.63 0.65 0.66 0.64 0.69 0.73 0.78 0.80 0.80 0.73 0.63 0.58 0.57 0.58 0.56 0.56 0.54 0.52 0.47 0.54 0.76 0.76 0.76 0.76 0.96 1.11 1.24 1.30 1.32 1.37 1.42 1.56 1.67 1.62 1.69
0.56 0.58 0.55 0.53 0.54 0.56 0.56 0.53 0.52 0.53 0.55 0.69 0.75 0.76 0.77 0.82 0.86 0.89 0.86 0.79 0.68 0.62 0.58 0.59 0.61 0.57 0.54 0.48 0.56 0.77 0.84 0.89 0.76 0.76 1.01 1.11 1.31 1.31 1.39 1.49 1.54 1.59 1.63
0.52 0.48 0.48 0.45 0.42 0.45 0.52 0.62 0.63 0.61 0.64 0.72 0.68 0.67 0.71 0.76 0.83 0.88 0.91 0.91 0.87 0.80 0.69 0.62 0.60 0.59 0.60 0.56 0.55 0.60 0.69 0.77 0.84 0.81 0.71 0.80 0.98 1.14 1.26 1.31 1.38 1.43 1.47
0.48 0.44 0.39 0.38 0.45 0.71 0.77 0.75 0.73 0.68 0.64 0.61 0.63 0.64 0.69 0.75 0.81 0.88 0.90 0.92 0.93 0.89 0.81 0.75 0.67 0.62 0.60 0.60 0.60 0.59 0.59 0.62 0.73 0.75 0.73 0.77 0.75 0.86 1.02 1.16 1.19 1.25 1.35
Wind_Speed
3 3 3 3 2 1 0 1 1 2 2 1 1 2 2 3 2 2 3 4 4 4 4 3 3 2 2 3 4 4 4 5 5 5 5 6 6 6 6 8 8 8 9
2 3 3 3 3 2 1 1 1 2 1 1 0 0 1 1 1 1 2 2 2 3 3 3 2 1 1 2 2 3 3 3 3 3 4 3 4 4 5 6 6 7 7
2 3 4 4 3 2 1 1 1 2 1 1 1 1 1 1 1 1 2 2 0 2 3 3 2 1 0 1 1 2 2 2 2 2 1 2 2 2 3 3 5 5 5
3 3 5 5 4 3 2 2 2 2 2 2 2 2 3 3 3 3 3 4 2 2 3 2 2 1 1 1 2 2 2 2 3 2 1 1 0 1 1 2 2 4 4
4 4 5 6 5 4 4 3 3 3 3 3 3 3 4 4 5 5 5 5 4 4 3 3 2 2 2 2 3 4 4 4 4 3 3 2 2 2 1 2 2 2 3
4 4 4 5 6 6 6 6 5 5 5 4 4 5 5 5 5 5 5 6 6 5 5 4 4 3 3 3 4 5 5 6 6 5 5 5 4 4 3 3 3 3 3
5 4 4 5 7 7 7 7 7 7 6 6 6 6 6 6 5 5 6 7 7 7 7 7 6 5 5 5 5 5 6 7 7 7 7 7 6 5 5 5 4 4 4
6 6 6 7 7 8 8 9 9 9 9 9 8 8 8 8 8 7 8 8 9 9 9 9 9 8 8 7 7 7 7 8 8 9 9 9 9 8 7 7 6 6 5
7 8 8 9 9 10 10 11 11 12 12 13 12 11 11 11 11 11 11 11 11 10 10 11 11 11 11 10 10 10 10 10 10 11 11 11 10 10 10 9 8 8 7
9 9 10 11 11 12 13 13 14 15 15 16 15 15 15 14 14 14 14 14 13 13 13 12 12 12 12 12 12 12 12 13 13 13 13 13 12 12 11 11 10 10 9
12 13 14 14 15 15 16 16 17 18 18 19 19 19 18 18 17 17 17 17 16 16 15 15 14 14 13 13 13 13 13 14 15 15 15 15 14 14 14 13 12 11 11
16 16 17 18 19 19 20 20 20 21 21 21 22 22 21 21 20 20 20 20 20 19 19 18 18 17 16 16 16 16 15 15 15 16 17 17 17 16 16 15 14 13 13
19 19 19 19 20 21 21 22 23 23 23 23 23 24 24 24 23 23 23 23 22 22 21 21 20 20 19 19 18 18 17 17 16 17 18 19 19 19 18 17 16 16 15
18 19 19 20 21 21 22 22 23 23 23 24 25 25 26 27 28 27 26 26 25 25 24 24 23 22 22 22 22 21 20 19 19 18 19 20 21 21 20 19 19 18 17
19 20 20 21 22 22 23 24 24 24 25 26 26 27 27 28 29 29 30 30 30 29 28 27 27 26 25 25 25 24 23 22 22 21 20 21 21 22 22 22 22 21 20
20 21 22 23 23 24 25 26 27 28 28 29 29 30 30 31 31 31 32 32 32 32 32 32 31 30 29 28 27 27 26 26 25 24 23 23 23 23 24 24 23 23 22
23 24 24 25 26 27 28 29 30 31 32 32 33 33 34 34 35 35 35 34 35 35 35 35 35 34 33 32 32 30 30 30 29 28 26 26 25 25 26 26 26 25 25
25 26 27 28 29 30 31 32 33 34 35 36 36 37 37 37 38 38 38 38 38 37 37 37 37 36 36 36 34 34 33 33 32 31 30 29 28 27 27 28 27 27 27
26 28 29 30 32 33 34 36 37 37 38 39 39 40 40 41 41 41 41 41 41 41 40 39 39 39 38 37 37 37 36 36 35 35 34 32 31 30 28 28 28 28 28
29 30 31 33 34 35 36 38 39 40 41 41 42 44 44 45 45 45 45 44 44 44 44 43 42 41 41 39 39 38 38 38 37 37 37 37 36 34 32 31 30 29 30
30 32 33 34 35 36 37 37 38 39 40 42 44 45 46 47 48 48 48 47 46 46 46 45 45 44 42 41 41 40 39 40 40 39 39 40 35 39 36 32 32 31 29
32 33 33 34 34 35 35 36 37 37 38 40 42 44 47 49 50 51 51 50 50 49 48 47 46 46 45 43 41 39 38 38 39 40 40 39 38 37 37 36 32 32 33
31 31 32 33 33 34 35 35 36 37 38 39 41 43 45 49 51 53 54 53 52 51 50 49 47 47 46 45 44 42 38 37 36 37 37 37 37 37 36 36 35 36 34
29 29 30 31 32 33 34 35 36 36 36 37 39 39 40 42 45 49 52 52 53 52 52 50 49 48 47 46 45 45 46 43 38 36 36 36 35 36 36 36 37 37 37
27 28 29 30 32 33 35 35 35 34 32 31 34 36 36 37 39 40 42 45 48 49 50 51 50 48 47 47 46 45 44 44 44 42 40 39 38 37 37 37 38 37 37
24 26 27 29 31 31 31 29 25 23 24 26 27 28 29 29 29 31 34 38 43 47 48 48 49 49 47 46 46 46 45 43 41 42 43 42 41 41 40 39 40 40 40
Wind_Direction
162 179 184 188 186 170 87 19 9 16 28 41 58 71 68 67 86 100 102 97 90 70 54 48 53 73 91 104 107 104 108 106 100 92 89 86 76 75 68 56 59 62 53
198 191 196 199 206 211 263 321 354 356 1 16 58 71 61 61 71 131 151 126 86 55 33 24 20 28 104 131 134 131 127 132 122 110 102 86 76 75 69 58 56 55 51
214 220 215 210 213 221 252 316 330 353 345 319 283 280 282 300 293 216 207 178 125 18 5 9 13 34 156 172 165 170 167 161 159 144 124 106 86 71 63 48 45 46 51
240 239 236 222 226 235 250 280 297 334 337 305 283 277 281 278 270 258 238 215 261 310 333 351 1 11 239 228 223 214 207 198 190 199 197 172 100 57 29 26 36 35 44
250 250 250 229 234 247 258 270 281 291 312 311 289 285 291 283 265 264 245 228 259 287 304 316 325 311 293 263 252 240 234 230 226 238 227 252 262 275 299 329 343 352 10
251 257 253 234 242 252 261 263 278 276 287 298 293 286 292 286 278 268 234 238 262 273 280 286 292 290 288 280 271 248 243 241 237 242 253 258 258 266 274 288 301 312 320
253 259 257 251 255 258 263 265 271 279 278 288 294 287 288 280 276 260 249 257 264 267 271 274 277 278 281 280 278 259 251 246 251 251 255 254 255 259 267 276 282 291 298
253 258 265 268 266 268 268 269 270 274 275 279 285 286 282 280 275 265 263 267 268 268 269 270 270 271 272 274 275 266 260 256 257 255 255 257 250 258 263 267 273 279 284
262 262 267 271 271 272 273 272 272 273 274 276 277 279 279 277 272 269 268 269 269 270 271 271 270 268 268 268 270 268 263 262 265 262 258 256 256 254 259 264 266 271 275
266 269 272 273 274 273 274 274 274 274 274 274 274 274 274 273 271 269 268 269 268 268 269 271 271 270 267 266 268 269 265 265 266 263 259 259 257 257 258 261 262 266 269
269 272 274 275 275 276 276 276 276 275 274 273 272 271 270 270 269 268 268 267 267 267 267 267 268 268 268 267 267 269 270 268 266 263 261 260 258 257 258 259 260 262 264
273 275 276 276 276 276 275 275 275 275 275 274 272 270 269 268 267 266 267 267 266 266 265 265 265 266 267 266 267 267 269 270 269 265 262 260 258 258 258 258 259 260 262
273 274 276 277 277 277 276 276 275 275 275 274 273 270 269 268 268 266 266 266 265 264 265 264 263 263 264 264 266 267 267 268 270 269 264 260 258 258 258 258 259 260 261
274 275 276 277 278 278 278 278 278 277 276 275 273 272 270 269 267 266 266 265 264 263 263 262 262 262 263 263 265 266 266 266 269 271 269 263 259 258 258 257 258 259 260
275 277 278 279 279 279 279 278 278 277 276 276 275 273 272 270 269 267 266 265 263 263 263 262 262 262 262 262 263 264 264 264 267 269 270 266 261 258 257 258 257 258 259
277 279 280 281 281 281 280 279 278 277 277 276 275 273 272 270 269 268 267 265 264 263 262 262 261 261 261 261 261 262 262 264 266 267 268 267 263 260 257 257 258 258 258
279 280 281 282 282 282 282 281 279 277 276 275 274 273 272 270 269 268 267 266 264 263 262 261 261 260 260 260 260 261 261 262 264 265 266 266 264 261 259 258 258 258 258
280 281 282 282 283 283 282 282 280 279 278 276 275 274 273 271 270 268 266 265 264 263 262 261 260 260 259 259 260 259 261 261 262 263 264 264 262 261 260 259 258 257 257
281 283 284 284 284 284 283 283 281 280 279 277 276 274 273 272 270 269 267 266 264 263 261 261 260 259 259 259 259 260 260 260 261 262 263 262 261 259 260 259 258 258 257
282 283 285 285 286 286 285 284 282 281 280 278 277 275 274 272 270 269 267 266 264 263 261 260 260 259 258 259 260 260 259 260 260 262 262 261 259 257 258 259 258 259 257
284 285 286 287 287 288 287 287 285 284 283 281 279 277 275 273 270 268 266 265 263 262 261 260 259 259 258 258 259 260 260 259 259 261 263 263 267 260 260 257 256 258 258
286 288 288 289 289 290 289 289 288 287 286 285 284 281 278 274 271 268 265 264 262 261 260 258 258 258 257 257 257 259 260 260 260 260 262 262 262 262 269 256 255 258 259
287 289 290 291 291 291 291 291 291 290 290 289 288 286 283 278 273 268 264 262 261 259 258 257 256 256 256 255 254 255 258 259 262 260 260 262 261 260 262 261 259 259 262
289 290 292 293 293 293 293 293 292 292 293 293 294 293 290 284 277 270 265 262 260 258 257 256 256 255 254 255 254 254 255 258 260 262 262 262 263 260 261 261 262 262 261
291 293 294 296 296 296 295 294 293 292 295 298 301 300 297 291 283 275 268 263 260 258 257 255 254 254 253 253 253 254 255 256 257 259 262 263 262 262 262 262 261 262 262
293 296 298 299 300 301 300 298 295 295 301 306 310 312 307 305 298 283 274 268 263 259 258 255 253 252 252 252 252 253 253 254 256 257 260 262 263 262 263 262 263 263 264